Time,TemperatureF,DewpointF,PressureIn,WindDirection,WindDirectionDegrees,WindSpeedMPH,WindSpeedGustMPH,Humidity,HourlyPrecipIn,Conditions,Clouds,dailyrainin,SoftwareType,DateUTC
2013-03-08 00:28:00,31.8,26.9,30.19,East,92,0.0,0.0,82,0.00,,---,0.00,VWS V14.01,2013-03-08 06:28:00,
2013-03-08 00:58:00,31.5,26.6,30.19,East,92,0.0,0.0,82,0.00,,---,0.00,VWS V14.01,2013-03-08 06:58:00,
2013-03-08 01:28:00,31.1,26.5,30.19,East,86,0.0,0.0,83,0.00,,---,0.00,VWS V14.01,2013-03-08 07:28:00,
2013-03-08 01:58:00,30.9,26.4,30.19,East,84,0.0,0.0,83,0.00,,---,0.00,VWS V14.01,2013-03-08 07:58:00,
2013-03-08 02:28:00,31.0,26.5,30.18,East,85,0.0,0.0,83,0.00,,---,0.00,VWS V14.01,2013-03-08 08:28:00,
2013-03-08 02:58:00,30.8,26.3,30.18,East,85,0.0,0.0,83,0.00,,---,0.00,VWS V14.01,2013-03-08 08:58:00,
2013-03-08 03:28:00,30.2,25.7,30.17,East,85,0.0,0.0,83,0.00,,---,0.00,VWS V14.01,2013-03-08 09:28:00,
2013-03-08 03:58:00,29.6,25.4,30.16,East,84,0.0,0.0,84,0.00,,---,0.00,VWS V14.01,2013-03-08 09:58:00,
2013-03-08 04:28:00,29.9,26.0,30.16,East,82,0.0,0.0,85,0.00,,---,0.00,VWS V14.01,2013-03-08 10:28:00,
2013-03-08 04:58:00,30.0,25.8,30.16,ENE,77,0.0,0.0,84,0.00,,---,0.00,VWS V14.01,2013-03-08 10:58:00,
2013-03-08 05:28:00,29.7,25.8,30.16,ENE,77,0.0,0.0,85,0.00,,---,0.00,VWS V14.01,2013-03-08 11:28:00,
2013-03-08 05:58:00,29.6,25.6,30.15,ENE,77,0.0,0.0,85,0.00,,---,0.00,VWS V14.01,2013-03-08 11:58:00,
2013-03-08 06:28:00,29.6,25.6,30.15,ENE,77,0.0,0.0,85,0.00,,---,0.00,VWS V14.01,2013-03-08 12:28:00,
2013-03-08 06:58:00,29.9,26.0,30.15,ENE,77,0.0,0.0,85,0.00,,---,0.00,VWS V14.01,2013-03-08 12:58:00,
2013-03-08 07:28:00,30.7,26.7,30.15,ENE,76,0.0,0.0,85,0.00,,---,0.00,VWS V14.01,2013-03-08 13:28:00,
2013-03-08 07:58:00,32.8,28.8,30.15,ENE,71,0.0,0.0,85,0.00,,---,0.00,VWS V14.01,2013-03-08 13:58:00,
2013-03-08 08:28:00,36.1,30.5,30.15,ENE,73,0.0,0.0,80,0.00,,---,0.00,VWS V14.01,2013-03-08 14:28:00,
2013-03-08 08:58:00,39.9,32.0,30.15,East,99,0.0,0.0,73,0.00,,---,0.00,VWS V14.01,2013-03-08 14:58:00,
2013-03-08 09:28:00,41.1,33.1,30.15,ESE,117,0.0,0.0,73,0.00,,---,0.00,VWS V14.01,2013-03-08 15:28:00,
2013-03-08 09:58:00,45.5,33.2,30.14,ESE,103,0.0,0.0,62,0.00,,---,0.00,VWS V14.01,2013-03-08 15:58:00,
2013-03-08 10:28:00,47.1,34.8,30.14,ESE,123,0.0,0.0,62,0.00,,---,0.00,VWS V14.01,2013-03-08 16:28:00,
2013-03-08 10:58:00,47.9,35.5,30.13,ESE,118,0.0,0.0,62,0.00,,---,0.00,VWS V14.01,2013-03-08 16:58:00,
2013-03-08 11:28:00,48.6,34.9,30.12,ESE,111,0.0,0.0,59,0.00,,---,0.00,VWS V14.01,2013-03-08 17:28:00,
2013-03-08 11:58:00,50.6,36.4,30.10,East,97,0.0,0.0,58,0.00,,---,0.00,VWS V14.01,2013-03-08 17:58:00,
2013-03-08 12:58:00,52.6,37.4,30.08,SE,138,0.0,0.0,56,0.00,,---,0.00,VWS V14.01,2013-03-08 18:58:00,
2013-03-08 13:28:00,52.7,37.5,30.05,East,92,0.0,0.0,56,0.00,,---,0.00,VWS V14.01,2013-03-08 19:28:00,
2013-03-08 13:58:00,53.6,37.4,30.04,East,99,0.0,0.0,54,0.00,,---,0.00,VWS V14.01,2013-03-08 19:58:00,
2013-03-08 14:28:00,54.0,37.8,30.02,East,101,0.0,0.0,54,0.00,,---,0.00,VWS V14.01,2013-03-08 20:28:00,
2013-03-08 14:58:00,54.8,38.5,30.02,East,90,0.0,0.0,54,0.00,,---,0.00,VWS V14.01,2013-03-08 20:58:00,
2013-03-08 15:28:00,54.5,39.6,30.01,ESE,107,0.0,0.0,57,0.00,,---,0.00,VWS V14.01,2013-03-08 21:28:00,
2013-03-08 15:58:00,54.0,39.6,29.99,East,94,0.0,0.0,58,0.00,,---,0.00,VWS V14.01,2013-03-08 21:58:00,
2013-03-08 16:28:00,52.4,39.4,29.98,East,100,0.0,0.0,61,0.00,,---,0.00,VWS V14.01,2013-03-08 22:28:00,
2013-03-08 16:58:00,50.8,39.5,29.97,ENE,73,0.0,0.0,65,0.00,,---,0.00,VWS V14.01,2013-03-08 22:58:00,
2013-03-08 17:28:00,48.6,38.2,29.97,East,91,0.0,0.0,67,0.00,,---,0.00,VWS V14.01,2013-03-08 23:28:00,
2013-03-08 17:58:00,47.1,37.5,29.96,East,98,0.0,0.0,69,0.00,,---,0.00,VWS V14.01,2013-03-08 23:58:00,
2013-03-08 18:28:00,45.9,37.0,29.97,East,90,0.0,0.0,71,0.00,,---,0.00,VWS V14.01,2013-03-09 00:28:00,
2013-03-08 18:58:00,45.0,36.5,29.97,East,94,0.0,0.0,72,0.00,,---,0.00,VWS V14.01,2013-03-09 00:58:00,
2013-03-08 19:28:00,44.4,36.7,29.97,East,96,0.0,0.0,74,0.00,,---,0.00,VWS V14.01,2013-03-09 01:28:00,
2013-03-08 19:58:00,44.0,35.9,29.97,ESE,105,0.0,0.0,73,0.00,,---,0.00,VWS V14.01,2013-03-09 01:58:00,
2013-03-08 20:28:00,43.8,35.4,29.97,East,101,0.0,0.0,72,0.00,,---,0.00,VWS V14.01,2013-03-09 02:28:00,
2013-03-08 20:58:00,43.0,36.3,29.96,East,96,0.0,0.0,77,0.00,,---,0.00,VWS V14.01,2013-03-09 02:58:00,
2013-03-08 21:28:00,42.1,37.3,29.97,East,96,0.0,0.0,83,0.00,,---,0.00,VWS V14.01,2013-03-09 03:28:00,
2013-03-08 21:58:00,41.9,38.3,29.95,East,100,0.0,0.0,87,0.01,,---,0.01,VWS V14.01,2013-03-09 03:58:00,
2013-03-08 22:28:00,42.2,38.6,29.94,ESE,108,0.0,0.0,87,0.02,,---,0.02,VWS V14.01,2013-03-09 04:28:00,
2013-03-08 22:58:00,42.2,39.2,29.93,ESE,105,0.0,0.0,89,0.04,,---,0.04,VWS V14.01,2013-03-09 04:58:00,
2013-03-08 23:28:00,41.8,38.8,29.91,East,98,0.0,0.0,89,0.04,,---,0.05,VWS V14.01,2013-03-09 05:28:00,
2013-03-08 23:58:00,41.5,38.8,29.90,ESE,103,0.0,0.0,90,0.04,,---,0.00,VWS V14.01,2013-03-09 05:58:00,